This demonstration page uses our WeatherBlox Daily Observations layout. Learn more.

Left ArrowRight Arrow

39.51506, -84.39828

Hourly Observations for May 8, 2021

Temp ( °F °C ) Dew Point ( °F °C ) Humidity (%) Winds ( mph kmh ) Pressure ( in mb ) Visibility ( mi km ) Precip ( " mm )
12:15 am 00:15 Clear 45 7.2 40 4.3 82 82 N 7 11 30.03 1017 10 16 N/A
12:35 am 00:35 Clear 45 7.4 35 1.9 68 68 N 8 13 30.03 1017 10 16 N/A
12:55 am 00:55 Clear 44 6.5 35 1.8 72 72 NW 5 7 30.03 1017 10 16 N/A
1:15 am 01:15 Clear 41 5.2 37 2.8 85 85 NNW 6 9 30.04 1017 10 16 N/A
1:35 am 01:35 Clear 42 5.5 34 1.3 75 75 NNW 6 9 30.04 1017 10 16 N/A
1:55 am 01:55 Clear 42 5.6 34 1 73 73 N 7 11 30.04 1017 10 16 N/A
2:15 am 02:15 Clear 41 5.2 34 1 75 75 N 6 9 30.04 1017 10 16 N/A
2:35 am 02:35 Clear 41 5.1 34 0.9 75 75 NNW 7 11 30.04 1017 10 16 N/A
2:55 am 02:55 Clear 41 4.9 33 0.7 75 75 N 6 9 30.05 1018 10 16 N/A
3:15 am 03:15 Clear 40 4.6 33 0.5 75 75 NW 3 6 30.05 1018 10 16 N/A
3:35 am 03:35 Clear 39 3.9 33 0.8 80 80 NW 5 7 30.06 1018 10 16 N/A
3:55 am 03:55 Clear 39 3.8 34 0.9 82 82 N N/A 30.07 1018 10 16 N/A
4:15 am 04:15 Clear 38 3.3 33 0.8 84 84 N N/A 30.08 1018 10 16 N/A
4:35 am 04:35 Clear 38 3.2 34 1.3 88 88 NNW 3 6 30.08 1019 10 16 N/A
4:55 am 04:55 Clear 38 3.6 34 1.1 84 84 N 3 6 30.09 1019 10 16 N/A
5:15 am 05:15 Clear 38 3.1 34 1.1 87 87 NNW 6 9 30.10 1019 10 16 N/A
5:35 am 05:35 Clear 38 3.1 34 1.1 87 87 N 5 7 30.10 1019 10 16 N/A
5:55 am 05:55 Clear 37 3 34 1 87 87 N 5 7 30.11 1020 10 16 N/A
6:15 am 06:15 Clear 37 2.9 34 0.9 87 87 NW 3 6 30.12 1020 10 16 N/A
6:35 am 06:35 Sunny 36 2.4 33 0.7 89 89 WNW 3 6 30.13 1020 10 16 N/A
6:55 am 06:55 Sunny 36 2.4 33 0.8 89 89 NW 3 6 30.14 1021 10 16 N/A
7:15 am 07:15 Sunny 37 2.7 34 1 89 89 NW 3 6 30.14 1021 10 16 N/A
7:35 am 07:35 Sunny 39 3.8 35 1.4 85 85 N 3 6 30.15 1021 10 16 N/A
7:55 am 07:55 Sunny 40 4.6 35 1.5 81 81 N 8 13 30.14 1021 10 16 N/A
8:15 am 08:15 Sunny 41 5.2 35 1.6 78 78 N 8 13 30.15 1021 10 16 N/A
8:35 am 08:35 Sunny 42 5.7 35 1.9 77 77 NNE 6 9 30.16 1021 10 16 N/A
8:55 am 08:55 Sunny 43 6.1 35 1.7 74 74 N 8 13 30.16 1021 10 16 N/A
9:15 am 09:15 Sunny 44 6.7 35 1.8 71 71 N 8 13 30.17 1022 10 16 N/A
9:35 am 09:35 Sunny 45 7.3 35 1.7 68 68 N 8 13 30.17 1022 10 16 N/A
9:55 am 09:55 Sunny 47 8.2 36 2 65 65 N 9 15 30.17 1022 10 16 N/A
10:15 am 10:15 Sunny 47 8.2 34 1.1 61 61 N 9 15 30.17 1022 10 16 N/A
10:35 am 10:35 Partly Cloudy 48 8.9 33 0.8 57 57 NNE 9 15 30.17 1022 10 16 N/A
10:55 am 10:55 Partly Cloudy 49 9.6 33 0.8 55 55 NNW 8 13 30.16 1021 10 16 N/A
11:15 am 11:15 Sunny 50 10.1 34 1.1 54 54 NNW 9 15 30.16 1021 10 16 N/A
11:35 am 11:35 Partly Cloudy 51 10.5 33 0.5 50 50 NNE 16 26 30.16 1021 10 16 N/A
11:55 am 11:55 Sunny 51 10.8 33 0.8 50 50 NNE 10 17 30.16 1021 10 16 N/A
12:15 pm 12:15 Partly Cloudy 51 10.8 32 0.2 48 48 NNE 10 17 30.17 1022 10 16 N/A
12:35 pm 12:35 Partly Cloudy 52 11.3 33 0.8 49 49 NW 5 7 30.16 1021 10 16 N/A
12:55 pm 12:55 Sunny 53 11.4 34 0.9 49 49 N 10 17 30.16 1021 10 16 N/A
1:15 pm 13:15 Sunny 53 11.5 33 0.7 48 48 ENE 7 11 30.15 1021 10 16 N/A
1:35 pm 13:35 Sunny 54 12.3 34 1.2 47 47 NNW 10 17 30.14 1021 10 16 N/A
1:55 pm 13:55 Mostly Cloudy 54 12 33 0.5 46 46 S 3 6 30.13 1020 10 16 N/A
2:15 pm 14:15 Mostly Cloudy 55 12.9 35 1.7 47 47 NNW 7 11 30.14 1021 10 16 N/A
2:35 pm 14:35 Partly Cloudy 54 12.3 33 0.5 45 45 ENE 5 7 30.14 1021 10 16 N/A
2:55 pm 14:55 Partly Cloudy 56 13.5 35 1.5 44 44 NNW 5 7 30.13 1020 10 16 N/A
3:15 pm 15:15 Sunny 56 13.4 36 2.2 47 47 NNW 3 6 30.12 1020 10 16 N/A
3:35 pm 15:35 Partly Cloudy 56 13.6 35 1.5 44 44 SW 5 7 30.11 1020 10 16 N/A
3:55 pm 15:55 Sunny 56 13.6 34 1.1 43 43 NNW 5 7 30.10 1019 10 16 N/A
4:15 pm 16:15 Sunny 57 13.9 34 1.1 42 42 SW 3 6 30.10 1019 10 16 N/A
4:35 pm 16:35 Partly Cloudy 58 14.3 34 1.2 41 41 W 7 11 30.10 1019 10 16 N/A
4:55 pm 16:55 Sunny 57 13.7 33 0.8 42 42 N N/A 30.09 1019 10 16 N/A
5:15 pm 17:15 Partly Cloudy 58 14.3 36 2.2 44 44 WSW 3 6 30.09 1019 10 16 N/A
5:35 pm 17:35 Partly Cloudy 57 13.9 35 1.8 44 44 SSE 6 9 30.09 1019 10 16 N/A
5:55 pm 17:55 Sunny 57 14.1 35 1.4 42 42 WSW 5 7 30.09 1019 10 16 N/A
6:15 pm 18:15 Sunny 57 14 34 1 41 41 N N/A 30.08 1019 10 16 N/A
6:35 pm 18:35 Sunny 57 13.9 33 0.8 41 41 SW 8 13 30.08 1019 10 16 N/A
6:55 pm 18:55 Sunny 57 13.7 34 1.2 43 43 S 5 7 30.08 1019 10 16 N/A
7:15 pm 19:15 Sunny 57 13.8 35 1.7 44 44 SW 5 7 30.08 1019 10 16 N/A
7:35 pm 19:35 Sunny 56 13.6 33 0.4 41 41 NNW 3 6 30.08 1019 10 16 N/A
7:55 pm 19:55 Sunny 56 13.5 34 0.9 42 42 N N/A 30.07 1018 10 16 N/A
8:15 pm 20:15 Partly Cloudy 56 13.6 32 undefined 40 40 N N/A 30.06 1018 10 16 N/A
8:35 pm 20:35 Cloudy 55 12.5 42 5.7 64 64 N N/A 30.06 1018 10 16 N/A
8:55 pm 20:55 Cloudy 53 11.8 45 7.2 74 74 NE 3 6 30.06 1018 10 16 N/A
9:15 pm 21:15 Cloudy 53 11.9 42 5.3 64 64 E 5 7 30.06 1018 10 16 N/A
9:35 pm 21:35 Cloudy 54 12.4 37 2.8 52 52 SE 5 7 30.05 1018 10 16 N/A
9:55 pm 21:55 Cloudy 55 12.5 36 2.3 50 50 ESE 6 9 30.05 1018 10 16 N/A
10:15 pm 22:15 Cloudy 54 12.4 36 2.3 50 50 ESE 6 9 30.04 1017 10 16 N/A
10:35 pm 22:35 Cloudy 55 12.5 36 2.1 49 49 ESE 6 9 30.05 1018 10 16 N/A
10:55 pm 22:55 Cloudy 54 12 38 3.2 55 55 NE 3 6 30.06 1018 10 16 N/A
11:15 pm 23:15 Cloudy 53 11.5 40 4.5 62 62 ENE 8 13 30.06 1018 10 16 N/A
11:35 pm 23:35 Cloudy 53 11.6 39 4.1 60 60 E 7 11 30.06 1018 10 16 N/A
11:55 pm 23:55 Cloudy 52 11.3 40 4.2 62 62 ENE 7 11 30.05 1017 10 16 N/A

Powered by AerisWeather